Location: Mohawk View
(42.7837°N, 73.7885°W)
Time: 08:34:21
(UTC+00:00)

Meteor 1-24 Rocket - Pass Details

Date: 25 October 2021
Orbit: 790 x 927 km, 81.3° (Epoch: 27 November)

Event Time Altitude Azimuth Distance (km) Brightness Sun altitude
Rises 10:43:16 0° 200° (SSW) 3,279 6.7 -7.6°
Reaches altitude 10° 10:45:39 10° 204° (SSW) 2,361 5.9 -7.1°
Maximum altitude 10:50:52 58° 283° (WNW) 946 3.7 -6.2°
Drops below altitude 10° 10:56:18 10° 2° (N) 2,441 6.0 -5.2°
Sets 10:58:48 0° 7° (N) 3,400 6.8 -4.8°
